Погода в Сан-Педро-Сула

Гондурас     15°30′21″N   88°01′38″W
темп.,
°C
ветер,
м/с
пор.,
м/с
влажн.,
%
обл.,
%
осадки,
мм/ч
давл.,
гПа
погр.,
м
16 апреля, пт
пт1600:00+22с0093100 0.5 101112
03:00+21з1190100 0.0 101011
06:00+21ююз119069 0.0 101030
09:00+29ю236168 0.0 1011765
12:00+34вюв223857 0.0 10081877
15:00+35св333379 0.0 10052363
18:00+26с367985 0.0 1007270
21:00+23ссз11868 0.0 100913
17 апреля, сб
сб1700:00+23юз1177100 0.0 100911
03:00+23з1179100 0.0 100815
06:00+23юз228221 0.0 100940
09:00+31ю3548100 0.0 1010885
12:00+35ююв3435100 0.0 10081912
15:00+36ссв3433100 0.0 10052517
18:00+26юв127398 0.4 100859
21:00+23ююз3486100 0.4 101084
18 апреля, вс
вс1800:00+23юз2384100 0.4 100957
03:00+24зюз227891 0.0 100835
06:00+24юз227863 0.0 101027
09:00+31юв12482 0.0 10111023
12:00+35всв223859 0.1 10092250
15:00+35с433921 0.3 10061944
18:00+28ссв246835 0.5 1007124
21:00+23зюз1295100 13.9 101070
19 апреля, пн
пн1900:00+22зюз1294100 31.9 101252
03:00+22зюз1294100 1.3 101279
06:00+22ююз1294100 1.6 101381
09:00+26ююз127799 0.3 1014534
12:00+30ю236097 1.6 10121387
15:00+30ссв126198 2.4 1009939
18:00+25св228272 2.4 101046
21:00+23с119067 0.3 101212
20 апреля, вт
вт2000:00+22зюз1190100 0.8 101213
03:00+22юз229299 0.3 101024
06:00+22зюз129150 0.5 101241
09:00+28ююв116728 0.3 1013633
12:00+33в11435 0.4 10111622
15:00+33ссв434479 0.3 10081949
18:00+25с358199 1.1 1010257
21:00+24зсз1186100 2.1 101231